Regional Weather Roundup
Issued by NWS

Home | Current Version | Previous Version | Graphics & Text | Print | Product List | Glossary Off
Versions: 1 2 3 4 5 6 7 8 9 10 11 12 13 14 15 16 17 18 19 20 21 22 23 24 25 26 27 28 29 30 31 32 33 34 35 36 37 38 39 40 41 42 43 44 45 46 47 48 49 50

000
ASUS43 KMKX 021900
RWRWI

WISCONSIN REGIONAL WEATHER ROUNDUP
NATIONAL WEATHER SERVICE MILWAUKEE/SULLIVAN WI
200 PM CDT SUN AUG 02 2015

NOTE: "FAIR" INDICATES FEW OR NO CLOUDS BELOW 12,000 FEET WITH NO
SIGNIFICANT WEATHER AND/OR OBSTRUCTIONS TO VISIBILITY.

WIZ001-002-006>008-014>016-023>028-022000-
NORTHWEST WISCONSIN

CITY           SKY/WX    TMP DP  RH WIND       PRES   REMARKS
SUPERIOR ARPT  CLOUDY    76  62  62 NW10G20   29.66S
ASHLAND        PTSUNNY   77  62  59 NW9G16    29.64R
HAYWARD        PTSUNNY   75  60  59 MISG      29.66S
SIREN          PTSUNNY   76  60  56 N9        29.68S
CUMBERLAND     PTSUNNY   73  63  68 N9        29.67R
RICE LAKE      CLOUDY    75  66  74 W9        29.67R
CHETEK         CLOUDY    76  69  79 W7        29.65R
LADYSMITH      LGT RAIN  73  69  87 NW5       29.65S
EAU CLAIRE     PTSUNNY   84  68  58 NW16G23   29.63R HX  87
MENOMONIE      PTSUNNY   83  65  55 W16G25    29.64R HX  85
NEW RICHMOND   CLOUDY    76  66  72 NW8       29.68R
OSCEOLA        PTSUNNY   77  64  63 N7        29.70R
$$

WIZ003>005-009-010-017-018-022000-
NORTH CENTRAL WISCONSIN

CITY           SKY/WX    TMP DP  RH WIND       PRES   REMARKS
MANITOWISH WTR PTSUNNY   73  62  68 NW7       29.65S
ARBOR VITAE    MOSUNNY   73  64  73 NW8       29.65R
WOODRUFF       MOSUNNY   73  64  73 NW8       29.65R
RHINELANDER    CLOUDY    66  61  84 CALM      29.65R
EAGLE RIVER    PTSUNNY   67  59  76 CALM      29.65R
LAND O LAKES   CLOUDY    70  62  76 S3        29.66R
PHILLIPS       CLOUDY    69  64  84 CALM      29.64F
TOMAHAWK       PTSUNNY   72  59  64 CALM      29.64F
MEDFORD        CLOUDY    76  67  74 W9G17     29.63R
MERRILL        NOT AVBL
$$

WIZ029-030-035-036-043>047-022000-
CENTRAL WISCONSIN

CITY           SKY/WX    TMP DP  RH WIND       PRES   REMARKS
WAUSAU         PTSUNNY   82  67  60 VRB7      29.57F HX  84
MOSINEE        NOT AVBL
MARSHFIELD     CLOUDY    86  66  51 W18G25    29.60R HX  88
STEVENS POINT  PTSUNNY   87  66  49 W14G26    29.58S HX  88
WAUPACA        MOSUNNY   93  63  36 SW16G24   29.56S HX  94
WAUTOMA        NOT AVBL
WISC RAPIDS    PTSUNNY   92  64  39 SW21G30   29.58F HX  93
CAMP DOUGLAS   NOT AVBL
$$

WIZ011>013-019>022-031-037>040-048>050-022000-
NORTHEAST WISCONSIN

CITY           SKY/WX    TMP DP  RH WIND       PRES   REMARKS
ANTIGO         CLOUDY    73  64  74 N6        29.63S
SHAWANO        PTSUNNY   87  66  50 W14G21    29.56S HX  89
OCONTO         PTSUNNY   83  70  65 CALM      29.55F HX  87
STURGEON BAY   CLOUDY    75  66  73 E10       29.57F
GREEN BAY      MOSUNNY   89  69  51 SW15G25   29.52F HX  93
MANITOWOC      NOT AVBL
APPLETON       NOT AVBL
CLINTONVILLE   PTSUNNY   91  63  38 SW15G21   29.55F HX  92
OSHKOSH        SUNNY     89  69  51 SW22G32   29.56F HX  93
$$

WIZ032>034-041-042-053>061-022000-
SOUTHWEST WISCONSIN

CITY           SKY/WX    TMP DP  RH WIND       PRES   REMARKS
LA CROSSE      SUNNY     92  69  47 SW17G29   29.59F HX  97
SPARTA         MOSUNNY   89  64  43 SW9G22    29.61F HX  90
VIROQUA        SUNNY     87  69  55 SW15G21   29.67F HX  91
BOSCOBEL       SUNNY     92  69  47 SW21      29.66F HX  97
PRAIRIE DU CHI SUNNY     89  66  46 SW16G22   29.67F HX  91
PLATTEVILLE    SUNNY     86  69  56 SW18G25   29.72F HX  90
$$

WIZ056-057-062-063-064-067-068-022000-
SOUTH CENTRAL WISCONSIN

CITY           SKY/WX    TMP DP  RH WIND       PRES   REMARKS
REEDSBURG      SUNNY     89  69  50 SW20G25   29.64F HX  94
BARABOO/DELLS  SUNNY     89  65  44 SW18G29   29.64F HX  90
LONE ROCK      NOT AVBL
MINERAL POINT  SUNNY     88  66  48 SW17G23   29.71F HX  90
MADISON        MOSUNNY   88  68  51 SW12G21   29.66F HX  91
MIDDLETON      SUNNY     89  65  44 SW23G29   29.68F HX  91
WATERTOWN      SUNNY     86  71  60 SW18G28   29.66F HX  91
MONROE         SUNNY     88  68  51 SW24      29.73F HX  91
JANESVILLE     SUNNY     91  64  40 SW23G29   29.70F HX  93
$$

WIZ051-052-058>065-066-070>072-022000-
SOUTHEAST WISCONSIN

CITY           SKY/WX    TMP DP  RH WIND       PRES   REMARKS
MILWAUKEE      MOSUNNY   92  66  42 SW23G36   29.67F HX  94
WAUKESHA       SUNNY     88  66  48 SW14G29   29.69F HX  90
MILWAUKEE/TIMM SUNNY     90  63  40 SW16G29   29.67F HX  90
RACINE         SUNNY     91  66  43 SW23G35   29.68F HX  93
BURLINGTON     SUNNY     87  65  48 SW18G26   29.71F HX  89
KENOSHA        SUNNY     91  68  46 SW18G30   29.70F HX  95
FOND DU LAC    SUNNY     88  71  57 SW17G28   29.60F HX  94
SHEBOYGAN      SUNNY     90  70  51 SW24G31   29.59F HX  95
WEST BEND      SUNNY     88  66  48 SW18G31   29.64F HX  90
JUNEAU         SUNNY     85  72  63 SW23      29.66F HX  91
$$

LSZ147-162-022000-
LAKE SUPERIOR

STATION/POSITION TIME  TEMP    WIND        PRES    WAVE
                       AIR SEA DIR/SP/G            HT/PER
                 (UTC) (F)     (DEG/KT/KT) (MB)    (FT/S)
W MID LAKE BUOY  1750   58 55  270/ 10/ 12 1002.1R   1
DEVILS ISLAND    1800   63     250/ 11/ 14 1003.2R
PORT WING        1800   69     260/ 11/ 15 1004.1
SAXON HARBOR     1800   68                 1003.0S
$$

LMZ867-665-643>646-022000-
LAKE MICHIGAN

STATION/POSITION TIME  TEMP    WIND        PRES    WAVE
                       AIR SEA DIR/SP/G            HT/PER
                 (UTC) (F)     (DEG/KT/KT) (MB)    (FT/S)
CHAMBERS ISLAND  1800   72      70/  4/  6 1002.0F
N MID LAKE BUOY  1750   69 69  270/  8/ 12 1004.1R   2/ 5
NORTHPORT PIER   1800   70     110/  2/  6 1002.0F
SISTER BAY       1815   75     150/  7/ 10   N/A
ALGOMA LAKESHORE 1712          220/ 13/ 16   N/A
KEWAUNEE LAKESHO 1800   70     170/ 12/ 14 1001.6F
SHEBOYGAN LAKESH 1800   84     220/ 21/ 24 1002.8F
PORT WASHINGTON  1800   90     220/ 11/ 23 1004.7F
ATWATER BUOY     1800   81 55  230/ 16/ 19 1006.4F
MILWAUKEE LAKESH 1800   86     230/ 19/ 23   N/A
KENOSHA   LAKESH 1800   89     220/ 18/ 29 1006.1F
$$

TC  - TEMPERATURE IN CELSIUS
VSB - VISIBILITY IN STATUTE MILES
WCI - WIND CHILL INDEX
HX  - HEAT INDEX



USA.gov is the U.S. government's official web portal to all federal, state and local government web resources and services.